SBBHSBRJ

Guest
Details From SBBH - Pampulha
To SBRJ - Santos-Dumont
Flight Number -
Tags generated
Created
Modified
Stats Distance 190 nm / 352 km
Max Altitude 21,300 ft / 6,492 m
Waypoints 3
Social Downloads 1
Likes 0
Share VATSIM

Download

Looking for another format? Having issues loading an existing format? Contact us
Advertisement - Login to hide

Notes

Basic altitude profile: - Ascent Rate: 2500ft/min - Ascent Speed: 250kts - Cruise Altitude: 35000ft - Cruise Speed: 420kts - Descent Rate: 1500ft/min - Descent Speed: 250kts Options: - Use NATs: yes - Use PACOTS: yes - Use low airways: yes - Use high airways: yes

Route

SBBH BBC SBRJ

ID Type Via Altitude (ft/m) Position (lat/lon) Dist (leg/tot) Name
O SBBH APT - 0 / 0 -19.85118 / -43.95063 - / 0 nm Pampulha
BBC NDB - 21,300 / 6,492 -21.26700 / -43.76417 85 / 85 nm BARBACENA NDB
O SBRJ APT - 0 / 0 -22.91046 / -43.16313 104 / 189 nm Santos-Dumont

Altitude Profile

Advertisement - Login to hide

Weather


0- 5 10 15 20 25 30 35+ Temperature / °C

Clouds and Precipitation
Forecast for 2020-03-30 12:00 UTC. Updated 3 hours ago

Ground ~20,000 ft ~40,000 ft Winds

SBBH

Details ICAO SBBH (PLU)
Name Pampulha-Belo Horizonte
Region Brazil
Timezone America/Sao_Paulo (UTC-3.0)
Stats Elevation 2,589 ft / 789 m (AMSL)
Location -19.850800° -43.949900°
Runways 1
Magnetic Variation 23.016° W

METAR

SBBH 301200Z 10008KT CAVOK 25/17 Q1020

Decode

TAF

Not found

Departure Runways

ID Width Length Bearing (true/mag) Surface Threshold Overrun Markings Lighting
13 148 ft / 45 m 7,751 ft / 2,362 m 110.89° / 133.90° ASPHALT 0 ft / 0 m 472 ft / 144 m APP EDGE THRESHOLD
31 148 ft / 45 m 7,751 ft / 2,362 m 290.88° / 313.90° ASPHALT 0 ft / 0 m 482 ft / 147 m APP EDGE THRESHOLD

SBRJ

Details ICAO SBRJ (SDU)
Name Santos Dumont-Rio de Janeiro
Region Brazil
Timezone Unknown
Stats Elevation 10 ft / 3 m (AMSL)
Location -22.910500° -43.163200°
Runways 2
Magnetic Variation 23.011° W

METAR

SBRJ 301200Z 01004KT 5000 BR BKN012 BKN040 OVC100 25/23 Q1016

Decode

TAF

TAF SBRJ 300300Z 3006/3018 02004KT 7000 BKN017 TN23/3008Z TX26/3017Z PROB40 3006/3009 5000 RA BKN015 BECMG 3009/3011 05005KT SCT017 BECMG 3015/3017 15010KT SCT020 FEW025TCU RMK PGU

Decode

Destination Runways

ID Width Length Bearing (true/mag) Surface Threshold Overrun Markings Lighting
02L 98 ft / 30 m 4,113 ft / 1,254 m 356.54° / 19.55° ASPHALT 0 ft / 0 m 0 ft / 0 m PREC-APP EDGE THRESHOLD REIL-OMNI
02R 138 ft / 42 m 4,328 ft / 1,319 m 356.56° / 19.57° ASPHALT 0 ft / 0 m 0 ft / 0 m PREC-APP EDGE THRESHOLD REIL-OMNI
20L 138 ft / 42 m 4,328 ft / 1,319 m 176.56° / 199.57° ASPHALT 0 ft / 0 m 0 ft / 0 m PREC-APP EDGE THRESHOLD REIL-OMNI
20R 98 ft / 30 m 4,113 ft / 1,254 m 176.54° / 199.55° ASPHALT 0 ft / 0 m 0 ft / 0 m PREC-APP EDGE THRESHOLD REIL-OMNI

Approach Navaids

Runway Type Ident Frequency Range Bearing (true/mag) Slope Elevation
20L LOC-LOC IRJ 111.10 MHz 18 nm / 33 km 172.42° / 195.43 ° - 11 ft / 3 m (AMSL)

Popular Alternatives